Weather History for Jerome, ID

Change the Weather History Date:

Sunday, November 4, 2012

  Actual Average Record
Temperature  
Mean Temperature 50 °F 42 °F  
Max Temperature 62 °F 52 °F 73 °F (1949)
Min Temperature 37 °F 32 °F 15 °F (1995)
Degree Days  
Heating Degree Days 15 23  
Month to date heating degree days 63 90  
Since 1 July heating degree days 577 789  
Cooling Degree Days 0 0  
Month to date cooling degree days 0 0  
Year to date cooling degree days 750 510  
Moisture  
Dew Point 31 °F    
Average Humidity 52    
Maximum Humidity 70    
Minimum Humidity 33    
Precipitation  
Precipitation 0.00 in 0.03 in 0.47 in (1963)
Month to date precipitation 0.01 0.12  
Year to date precipitation 7.59 8.22  
Sea Level Pressure  
Sea Level Pressure 30.34 in    
Wind  
Wind Speed 7 mph (SSW)    
Max Wind Speed 15 mph    
Max Gust Speed 20 mph    
Visibility 10 miles    
Events      
T = Trace of Precipitation, MM = Missing Value Source: NWS Daily Summary

Daily Weather History Graph

Daily Weather History Graph

Search for Another Location

Airport:

Trip Planner

Search our weather history database for the weather conditions in past years. The results will help you decide how hot, cold, wet, or windy it might be!

Date:

Astronomy

Nov. 04, 2012 Rise Set
Actual Time 7:16 AM MST 5:25 PM MST
Civil Twilight 6:46 AM MST 5:55 PM MST
Nautical Twilight 6:13 AM MST 6:29 PM MST
Astronomical Twilight 5:40 AM MST 7:02 PM MST
Moon 10:06 PM MST (11/4) 12:03 PM MST (11/4)
Length of Visible Light 11h 08m
Length of Day
10h 09m
Waning Gibbous, 71% of the Moon is Illuminated
Nov 4
Waning Gibbous
Nov 6
Last Quarter
Nov 13
New
Nov 20
First Quarter
Nov 28
Full

Hourly Weather History & Observations

Time (MST) Temp. Windchill Dew Point Humidity Pressure Visibility Wind Dir Wind Speed Gust Speed Precip Events Conditions
12:53 AM 48.0 °F - 28.9 °F 48% 30.23 in 10.0 mi Calm Calm - N/A   Clear
1:53 AM 45.0 °F 43.5 °F 28.9 °F 53% 30.26 in 10.0 mi NW 3.5 mph - N/A   Scattered Clouds
1:53 AM 45.0 °F 43.5 °F 28.0 °F 52% 30.25 in 10.0 mi SE 3.5 mph - N/A   Clear
2:53 AM 42.1 °F 40.2 °F 28.0 °F 58% 30.27 in 10.0 mi SSE 3.5 mph - N/A   Clear
3:53 AM 41.0 °F 38.0 °F 28.0 °F 60% 30.27 in 10.0 mi SE 4.6 mph - N/A   Clear
5:53 AM 37.9 °F - 28.0 °F 68% 30.31 in 10.0 mi Calm Calm - N/A   Clear
6:53 AM 39.9 °F 37.8 °F 27.0 °F 60% 30.31 in 10.0 mi SE 3.5 mph - N/A   Clear
7:53 AM 39.9 °F 36.7 °F 28.9 °F 65% 30.35 in 10.0 mi ESE 4.6 mph - N/A   Clear
8:53 AM 44.1 °F 41.5 °F 30.0 °F 58% 30.36 in 10.0 mi South 4.6 mph - N/A   Clear
9:53 AM 48.9 °F - 28.9 °F 46% 30.37 in 10.0 mi WSW 9.2 mph - N/A   Partly Cloudy
10:53 AM 52.0 °F - 28.9 °F 41% 30.39 in 10.0 mi West 11.5 mph - N/A   Mostly Cloudy
11:53 AM 55.0 °F - 28.9 °F 37% 30.38 in 10.0 mi SW 8.1 mph - N/A   Scattered Clouds
12:53 PM 57.9 °F - 30.0 °F 35% 30.37 in 10.0 mi West 8.1 mph - N/A   Clear
1:53 PM 59.0 °F - 30.9 °F 35% 30.36 in 10.0 mi West 11.5 mph - N/A   Clear
2:53 PM 61.0 °F - 33.1 °F 35% 30.35 in 10.0 mi WSW 11.5 mph - N/A   Clear
3:53 PM 61.0 °F - 34.0 °F 36% 30.36 in 10.0 mi WSW 11.5 mph - N/A   Clear
4:53 PM 57.9 °F - 35.1 °F 42% 30.35 in 10.0 mi SW 9.2 mph - N/A   Clear
5:53 PM 52.0 °F - 35.1 °F 53% 30.39 in 10.0 mi SW 8.1 mph - N/A   Clear
6:53 PM 51.1 °F - 35.1 °F 54% 30.40 in 10.0 mi South 3.5 mph - N/A   Clear
7:53 PM 50.0 °F - 35.1 °F 57% 30.41 in 10.0 mi SSW 8.1 mph - N/A   Clear
8:53 PM 50.0 °F - 36.0 °F 59% 30.41 in 10.0 mi SSW 10.4 mph - N/A   Clear
10:53 PM 45.0 °F 43.5 °F 35.1 °F 68% 30.41 in 10.0 mi South 3.5 mph - N/A   Clear